Find Kuiper-00051

NORAD ID: 64511 Int'l Des: 2025-134 Owner: KUIP Country: US Constellation: kuiper operational
LEOCIRCULAR

Live-Position

3D-Globus wird geladen...

Über Kuiper-00051

Beschreibung wird geladen...

Nächste Überflüge

Passes for default location (London). Set your location on the main map for personalized predictions.

Höhenverlauf

Loading altitude history...

Zweizeiliger Elementsatz

1 64511U 25134M 26106.25002315 .00021607 00000-0 30972-2 0 9994
2 64511 51.9004 59.6687 0001298 174.1038 272.9618 14.76459283 5259
Epoch: 16. Apr. 2026 • Age: 8 hours

Aktueller Status

Höhe 645.7 km
Geschwindigkeit 7.53 km/s
Subsatellitenpunkt -16.52°S, 4.35°W
Startdatum 23. Juni 2025
Alter 0.8 years
Typ internet

Technische Details

Klassifizierung Payload
Masse 490.00 kg
Trockenmasse 490.00 kg
Gesamtmasse 490.00 kg
Länge 1.80 m
Durchmesser 0.70 m
Spannweite 5.00 m
Form Box + 2 pan
Hersteller KUIP
Bus-Typ Kuiper
Phasenstatus In Orbit
Besitzer/Staat KUIP/US

Most Searched